Home   Weather   46°24'N, 120°15'W   Past weeks
Flag for USA

Past Weather in 46°24'N, 120°15'W, USA — Yesterday and Last 2 Weeks

Now
30 °F

Ice fog.


Feels Like: 30 °F
Forecast: 37 / 25 °F
Wind: No wind

Location: Yakima Air Terminal

Current Time: Dec 14, 2019 at 10:09:58 pm

Latest Report: Dec 14, 2019 at 9:36 pm


Visibility: 0 mi

Pressure: 29.99 "Hg

Humidity: 92%

Dew Point: 28 °F

Location of 46°24'N, 120°15'WLocation

Past Weather in 46°24'N, 120°15'W — Graph

°F

46°24'N, 120°15'W Temperature Yesterday

Maximum temperature yesterday: 46 °F (at 1:53 pm)
Minimum temperature yesterday: 24 °F (at 7:15 am)
Average temperature yesterday: 31 °F

High & Low Weather Summary for the Past Weeks

 TemperatureHumidityPressure
High46 °F (Dec 13, 1:53 pm)97% (Dec 8, 1:11 am)30.34 "Hg (Dec 8, 1:11 am)
Low7 °F (Nov 30, 6:53 am)40% (Nov 30, 2:53 pm)29.77 "Hg (Dec 7, 2:53 pm)
Average31 °F88%30.09 "Hg
* Reported Nov 29 8:53 pm — Dec 14 8:53 pm, 46°24'N, 120°15'W. Weather by CustomWeather, © 2019

Note: Actual official high and low records may vary slightly from our data, if they occured in-between our weather recording intervals... More about our weather records

46°24'N, 120°15'W Weather History for the Previous 24 Hours

Scroll right to see more
 ConditionsComfort  
Time TempWeatherWind HumidityBarometerVisibility
8:53 pm
Sat, Dec 14
30 °FIce fog.No wind92%30.02 "Hg0 mi
8:04 pm30 °FIce fog.3 mph92%29.98 "Hg0 mi
7:53 pm30 °FIce fog.5 mph92%30.02 "Hg1 mi
7:26 pm30 °FIce fog.5 mph92%29.98 "Hg1 mi
6:53 pm31 °FIce fog.No wind92%30.02 "Hg1 mi
5:53 pm31 °FIce fog.No wind89%30.02 "Hg1 mi
5:44 pm31 °FIce fog.5 mph89%29.97 "Hg3 mi
5:03 pm31 °FIce fog.6 mph89%29.97 "Hg3 mi
3:53 pm33 °FBroken clouds.6 mph85%30.01 "Hg10 mi
2:53 pm36 °FPartly sunny.5 mph79%30.01 "Hg9 mi
1:53 pm37 °FBroken clouds.3 mph76%30.00 "Hg10 mi
12:53 pm36 °FBroken clouds.No wind79%30.01 "Hg10 mi
11:53 am36 °FBroken clouds.3 mph75%30.02 "Hg10 mi
10:53 am31 °FBroken clouds.No wind85%30.04 "Hg10 mi
9:53 am29 °FBroken clouds.No wind82%30.06 "Hg10 mi
8:53 am25 °FPartly sunny.No wind88%30.05 "Hg10 mi
7:53 am19 °FScattered clouds.No wind85%30.04 "Hg10 mi
6:53 am19 °FPassing clouds.5 mph85%30.04 "Hg10 mi
6:16 am20 °FIce fog.No wind89%29.99 "Hg3 mi
6:03 am21 °FPassing clouds.No wind85%29.99 "Hg2 mi
4:53 am21 °FClear.5 mph88%30.03 "Hg10 mi
3:53 am21 °FPassing clouds.5 mph88%30.01 "Hg10 mi
2:53 am24 °FClear.No wind84%30.01 "Hg10 mi
1:53 am24 °FClear.5 mph88%30.00 "Hg9 mi
12:53 am24 °FClear.6 mph88%30.00 "Hg9 mi
11:53 pm
Fri, Dec 13
26 °FClear.5 mph88%30.01 "Hg9 mi
10:53 pm26 °FClear.7 mph88%30.00 "Hg9 mi
Weather by CustomWeather, © 2019

See weather overview

Advertising